Location: Le Rocchette
(44.3500°N, 7.8333°E)
Time: 17:01:30
(UTC+00:00)

Gbstr 26 Del rocket - Pass Details

Date: 17 November 2019
Orbit: 493 x 1264 km, 51.8° (Epoch: 05 December)

Event Time Altitude Azimuth Distance (km) Brightness Sun altitude
Exits shadow 05:51:35 - 289° (WNW) 1,841 4.8 -6.6°
Reaches altitude 10° 05:51:58 10° 291° (WNW) 1,707 4.6 -6.5°
Maximum altitude 05:55:15 28° 352° (N) 963 3.8 -6.0°
Drops below altitude 10° 05:58:33 10° 53° (NE) 1,714 5.8 -5.4°
Sets 06:01:01 0° 66° (ENE) 2,648 7.0 -5.0°
